Content
SEND FEEDBACK

Daily
Averages
Monthly
Summary
United States of America

SANDY GULCH, CALIFORNIA


Home > North America > United States > California
Elevation: 2370 feet     Latitude: 38 23N     Longitude: 120 34W

WEATHER
 
SELECT A DAY
Number of Records: 95,536;   Date Range: 7/10/09 - 9/17/14
 
SHARE

PRINT THIS DATA

[ ← Previous Day ]
WEATHER ALMANAC - JANUARY 3, 2013
[ Next Day → ]
[ °C ]   °F
Weather ElementAverageHighLow
Temperature44.3 °F50 °F (11:55 am)37.4 °F (5:35 am)
Dewpoint27.2 °F32 °F (12:15 pm)17.6 °F (6:55 am)
Humidity51.8 %66 % (6:15 pm)34 % (9:35 am)
Barometer30.20 in30.25 in (9:55 pm)30.15 in (1:15 am)
Wind Speed3.1 mph10.4 mph (8:55 pm)
Weather ElementAverage
Visibility10 mi
Wind DirectionE (90.3 °)

Weather ElementTotal
Precipitation---
Heating Degree Days21.3 (Base 65)
Averaged from 67 records on January 3, 2013
WEATHER CONDITIONS BREAKOUT
WIND DIRECTION BREAKOUT
WEATHER BY HOUR - JANUARY 3, 2013
[ °C ]   °F
Local TimeTemperatureDewpointHumidityBarometerVisibilityWind DirectionWind SpeedGust SpeedPrecipitationEventsConditions
12:35 AM39.2 °F26.6 °F61 %30.16 in10.0 miEast (100°)8.1 mphClear
12:55 AM39.2 °F26.6 °F61 %30.16 in10.0 miEast (100°)8.1 mphClear
1:15 AM41.0 °F26.6 °F57 %30.15 in10.0 miESE (110°)9.2 mphClear
1:35 AM41.0 °F26.6 °F57 %30.15 in10.0 miEast (100°)8.1 mphClear
1:55 AM42.8 °F24.8 °F49 %30.15 in10.0 miEast (90°)6.9 mphClear
2:15 AM39.2 °F24.8 °F56 %30.15 in10.0 miEast (90°)8.1 mphClear
2:35 AM41.0 °F23.0 °F49 %30.15 in10.0 miCalmClear
2:55 AM44.6 °F21.2 °F39 %30.15 in10.0 miCalmClear
3:15 AM42.8 °F21.2 °F42 %30.16 in10.0 miNW (310°)3.5 mphClear
3:35 AM42.8 °F24.8 °F49 %30.15 in10.0 miCalmClear
3:55 AM41.0 °F23.0 °F49 %30.16 in10.0 miWNW (290°)4.6 mphClear
4:15 AM39.2 °F26.6 °F61 %30.16 in10.0 miCalmClear
4:35 AM39.2 °F28.4 °F65 %30.16 in10.0 miCalmClear
5:15 AM39.2 °F26.6 °F61 %30.16 in10.0 miCalmClear
5:35 AM37.4 °F23.0 °F56 %30.16 in10.0 miEast (90°)5.8 mphClear
5:55 AM39.2 °F24.8 °F56 %30.15 in10.0 miCalmClear
6:15 AM39.2 °F26.6 °F61 %30.15 in10.0 miEast (80°)5.8 mphClear
6:55 AM41.0 °F17.6 °F39 %30.16 in10.0 miCalmClear
7:15 AM39.2 °F19.4 °F45 %30.16 in10.0 miCalmClear
7:35 AM41.0 °F17.6 °F39 %30.18 in10.0 miCalmClear
7:55 AM39.2 °F24.8 °F56 %30.18 in10.0 miNorth (10°)3.5 mphClear
8:15 AM42.8 °F19.4 °F39 %30.18 in10.0 miENE (60°)6.9 mphClear
8:35 AM41.0 °F19.4 °F42 %30.20 in10.0 miEast (100°)8.1 mphClear
8:55 AM42.8 °F19.4 °F39 %30.20 in10.0 miEast (80°)3.5 mphClear
9:15 AM44.6 °F19.4 °F37 %30.21 in10.0 miSE (130°)4.6 mphClear
9:35 AM48.2 °F21.2 °F34 %30.22 in10.0 miCalmClear
9:55 AM48.2 °F21.2 °F34 %30.22 in10.0 miSouth (190°)3.5 mphClear
10:15 AM48.2 °F23.0 °F37 %30.23 in10.0 miCalmClear
10:35 AM48.2 °F26.6 °F43 %30.22 in10.0 miCalmClear
10:55 AM48.2 °F28.4 °F46 %30.22 in10.0 miSW (230°)3.5 mphClear
11:15 AM48.2 °F28.4 °F46 %30.22 in10.0 miWSW (250°)4.6 mphClear
11:35 AM48.2 °F26.6 °F43 %30.22 in10.0 miWest (270°)4.6 mphClear
11:55 AM50.0 °F30.2 °F47 %30.21 in10.0 miCalmClear
12:15 PM48.2 °F32.0 °F54 %30.21 in10.0 miCalmClear
12:35 PM48.2 °F32.0 °F54 %30.20 in10.0 miWest (260°)5.8 mphClear
12:55 PM48.2 °F32.0 °F54 %30.21 in10.0 miWSW (240°)3.5 mphClear
1:15 PM48.2 °F30.2 °F50 %30.21 in10.0 miWNW (290°)3.5 mphClear
1:35 PM50.0 °F32.0 °F50 %30.21 in10.0 miWest (280°)5.8 mphClear
1:55 PM48.2 °F32.0 °F54 %30.21 in10.0 miCalmClear
2:15 PM48.2 °F32.0 °F54 %30.21 in10.0 miCalmClear
2:55 PM50.0 °F30.2 °F47 %30.21 in10.0 miCalmClear
3:15 PM50.0 °F30.2 °F47 %30.21 in10.0 miCalmClear
3:35 PM50.0 °F32.0 °F50 %30.21 in10.0 miCalmClear
3:55 PM50.0 °F32.0 °F50 %30.21 in10.0 miCalmClear
4:15 PM48.2 °F32.0 °F54 %30.21 in10.0 miWSW (240°)3.5 mphClear
4:35 PM48.2 °F32.0 °F54 %30.21 in10.0 miCalmClear
4:55 PM46.4 °F32.0 °F57 %30.21 in10.0 miCalmClear
5:15 PM46.4 °F32.0 °F57 %30.21 in10.0 miNNW (330°)4.6 mphClear
5:35 PM44.6 °F32.0 °F61 %30.22 in10.0 miNorth (350°)4.6 mphClear
5:55 PM44.6 °F32.0 °F61 %30.22 in10.0 miNorth (350°)3.5 mphClear
6:15 PM42.8 °F32.0 °F66 %30.22 in10.0 miNorth (360°)5.8 mphClear
6:35 PM42.8 °F32.0 °F66 %30.23 in10.0 miCalmClear
6:55 PM44.6 °F32.0 °F61 %30.23 in10.0 miCalmClear
7:15 PM42.8 °F32.0 °F66 %30.23 in10.0 miCalmClear
7:35 PM42.8 °F32.0 °F66 %30.23 in10.0 miCalmClear
7:55 PM44.6 °F32.0 °F61 %30.24 in10.0 miCalmClear
8:15 PM44.6 °F32.0 °F61 %30.24 in10.0 miCalmClear
8:35 PM44.6 °F32.0 °F61 %30.24 in10.0 miENE (70°)4.6 mphClear
8:55 PM44.6 °F30.2 °F57 %30.24 in10.0 miENE (70°)10.4 mphClear
9:15 PM44.6 °F28.4 °F53 %30.24 in10.0 miEast (80°)9.2 mphClear
9:35 PM44.6 °F28.4 °F53 %30.24 in10.0 miEast (100°)6.9 mphClear
9:55 PM44.6 °F28.4 °F53 %30.25 in10.0 miEast (90°)5.8 mphClear
10:15 PM44.6 °F26.6 °F49 %30.25 in10.0 miEast (100°)6.9 mphClear
10:35 PM44.6 °F24.8 °F46 %30.24 in10.0 miEast (80°)6.9 mphClear
10:55 PM44.6 °F24.8 °F46 %30.24 in10.0 miEast (80°)5.8 mphClear
11:35 PM41.0 °F24.8 °F53 %30.24 in10.0 miCalmClear
11:55 PM41.0 °F23.0 °F49 %30.24 in10.0 miCalmClear
Hourly data recorded from KPVF, located miles away from Sandy Gulch, California







STORIES FROM OUR PARTNERS